| time (UTC) | temp C | wind direction | speed KPH | gust KPH | rain 1hr cm | rain 24hr cm | rain mn cm | humidity % | barometer mb |
| 20260507170345 | 19 | 298 | 4.8 | 6.4 | 0.00 | 0.00 | 0.00 | 75 | 1019.0 |
| 20260507165841 | 20 | 305 | 3.2 | 6.4 | 0.00 | 0.00 | 0.00 | 74 | 1019.0 |
| 20260507165337 | 20 | 328 | 3.2 | 4.8 | 0.00 | 0.00 | 0.00 | 73 | 1019.0 |
| 20260507164834 | 20 | 327 | 1.6 | 6.4 | 0.00 | 0.00 | 0.00 | 74 | 1019.0 |
| 20260507164331 | 20 | 315 | 3.2 | 3.2 | 0.00 | 0.00 | 0.00 | 72 | 1019.0 |
| 20260507163828 | 20 | 308 | 1.6 | 3.2 | 0.00 | 0.00 | 0.00 | 73 | 1019.0 |
| 20260507163325 | 20 | 308 | 3.2 | 3.2 | 0.00 | 0.00 | 0.00 | 72 | 1019.3 |
| 20260507162821 | 19 | 319 | 3.2 | 3.2 | 0.00 | 0.00 | 0.00 | 74 | 1019.0 |
| 20260507162317 | 18 | 326 | 1.6 | 4.8 | 0.00 | 0.00 | 0.00 | 76 | 1019.0 |
| 20260507161815 | 19 | 345 | 1.6 | 4.8 | 0.00 | 0.00 | 0.00 | 76 | 1019.0 |
| 20260507161311 | 18 | 353 | 0.0 | 3.2 | 0.00 | 0.00 | 0.00 | 80 | 1019.3 |
| 20260507160808 | 18 | 344 | 1.6 | 3.2 | 0.00 | 0.00 | 0.00 | 79 | 1019.0 |
| 20260507160303 | 18 | 331 | 1.6 | 4.8 | 0.00 | 0.00 | 0.00 | 78 | 1019.0 |
| 20260507155759 | 18 | 346 | 1.6 | 4.8 | 0.00 | 0.00 | 0.00 | 79 | 1019.3 |
| 20260507155255 | 18 | 349 | 1.6 | 4.8 | 0.00 | 0.00 | 0.00 | 80 | 1019.3 |
| 20260507154752 | 18 | 343 | 1.6 | 3.2 | 0.00 | 0.00 | 0.00 | 80 | 1019.3 |
| 20260507154250 | 18 | 359 | 1.6 | 1.6 | 0.00 | 0.00 | 0.00 | 80 | 1019.3 |
| 20260507153746 | 18 | 354 | 1.6 | 4.8 | 0.00 | 0.00 | 0.00 | 80 | 1019.3 |
| 20260507153243 | 17 | 1 | 3.2 | 4.8 | 0.00 | 0.00 | 0.00 | 80 | 1019.3 |
| 20260507152739 | 18 | 11 | 1.6 | 3.2 | 0.00 | 0.00 | 0.00 | 80 | 1019.0 |
| 20260507152236 | 17 | 12 | 3.2 | 3.2 | 0.00 | 0.00 | 0.00 | 82 | 1019.3 |
| 20260507151732 | 17 | 350 | 3.2 | 3.2 | 0.00 | 0.00 | 0.00 | 81 | 1019.0 |
| 20260507151228 | 17 | 357 | 3.2 | 4.8 | 0.00 | 0.00 | 0.00 | 81 | 1019.3 |
| 20260507150725 | 17 | 11 | 1.6 | 3.2 | 0.00 | 0.00 | 0.00 | 82 | 1019.0 |
| 20260507150222 | 17 | 6 | 0.0 | 1.6 | 0.00 | 0.00 | 0.00 | 82 | 1019.3 |
| 20260507145718 | 17 | 8 | 0.0 | 1.6 | 0.00 | 0.00 | 0.00 | 83 | 1019.3 |
| 20260507145215 | 17 | 8 | 1.6 | 1.6 | 0.00 | 0.00 | 0.00 | 82 | 1019.3 |
| 20260507144712 | 17 | 11 | 0.0 | 1.6 | 0.00 | 0.00 | 0.00 | 82 | 1019.0 |
| 20260507144210 | 17 | 11 | 1.6 | 3.2 | 0.00 | 0.00 | 0.00 | 82 | 1019.3 |
| 20260507143706 | 17 | 10 | 0.0 | 1.6 | 0.00 | 0.00 | 0.00 | 82 | 1019.3 |
| 20260507143203 | 17 | 10 | 0.0 | 0.0 | 0.00 | 0.00 | 0.00 | 82 | 1019.0 |
| 20260507142659 | 17 | 11 | 0.0 | 0.0 | 0.00 | 0.00 | 0.00 | 85 | 1018.7 |
| 20260507142156 | 16 | 11 | 0.0 | 0.0 | 0.00 | 0.00 | 0.00 | 87 | 1019.0 |
| 20260507141652 | 16 | 10 | 0.0 | 0.0 | 0.00 | 0.00 | 0.00 | 90 | 1019.0 |
| 20260507141149 | 16 | 10 | 0.0 | 0.0 | 0.00 | 0.00 | 0.00 | 92 | 1019.0 |
| 20260507140645 | 16 | 10 | 0.0 | 0.0 | 0.00 | 0.00 | 0.00 | 94 | 1018.7 |
| 20260507140143 | 16 | 10 | 0.0 | 0.0 | 0.00 | 0.00 | 0.00 | 95 | 1019.0 |
| 20260507135640 | 16 | 11 | 0.0 | 0.0 | 0.00 | 0.00 | 0.00 | 95 | 1019.0 |
| 20260507135137 | 15 | 10 | 0.0 | 0.0 | 0.00 | 0.00 | 0.00 | 95 | 1018.7 |
| 20260507134633 | 15 | 10 | 0.0 | 0.0 | 0.00 | 0.00 | 0.00 | 95 | 1018.7 |
| 20260507134130 | 15 | 10 | 0.0 | 0.0 | 0.00 | 0.00 | 0.00 | 95 | 1018.7 |
| 20260507133625 | 15 | 10 | 0.0 | 0.0 | 0.00 | 0.00 | 0.00 | 95 | 1018.3 |
| 20260507133123 | 13 | 10 | 0.0 | 0.0 | 0.00 | 0.00 | 0.00 | 95 | 1018.7 |
| 20260507132620 | 13 | 10 | 0.0 | 0.0 | 0.00 | 0.00 | 0.00 | 95 | 1018.7 |
| 20260507132116 | 13 | 10 | 0.0 | 0.0 | 0.00 | 0.00 | 0.00 | 95 | 1018.7 |
| 20260507131613 | 13 | 10 | 0.0 | 0.0 | 0.00 | 0.00 | 0.00 | 95 | 1018.7 |
| 20260507131111 | 13 | 9 | 0.0 | 0.0 | 0.00 | 0.00 | 0.00 | 95 | 1018.7 |
| 20260507130607 | 13 | 9 | 0.0 | 0.0 | 0.00 | 0.00 | 0.00 | 95 | 1018.7 |
| 20260507130106 | 13 | 9 | 0.0 | 0.0 | 0.00 | 0.00 | 0.00 | 95 | 1018.3 |
| 20260507125604 | 12 | 9 | 0.0 | 0.0 | 0.00 | 0.00 | 0.00 | 95 | 1018.3 |
| 20260507125101 | 12 | 9 | 0.0 | 0.0 | 0.00 | 0.00 | 0.00 | 95 | 1018.3 |
| 20260507124557 | 12 | 9 | 0.0 | 0.0 | 0.00 | 0.00 | 0.00 | 95 | 1018.3 |
| 20260507124055 | 12 | 9 | 0.0 | 0.0 | 0.00 | 0.00 | 0.00 | 95 | 1018.7 |
| 20260507123553 | 12 | 9 | 0.0 | 0.0 | 0.00 | 0.00 | 0.00 | 95 | 1018.3 |
| 20260507123050 | 12 | 9 | 0.0 | 0.0 | 0.00 | 0.00 | 0.00 | 95 | 1018.3 |
| 20260507122545 | 12 | 9 | 0.0 | 0.0 | 0.00 | 0.00 | 0.00 | 95 | 1018.7 |
| 20260507122041 | 12 | 9 | 0.0 | 0.0 | 0.00 | 0.00 | 0.00 | 95 | 1018.7 |
| 20260507121537 | 12 | 9 | 0.0 | 0.0 | 0.00 | 0.00 | 0.00 | 95 | 1018.7 |
| 20260507121033 | 12 | 9 | 0.0 | 0.0 | 0.00 | 0.00 | 0.00 | 95 | 1018.3 |
| 20260507120529 | 12 | 9 | 0.0 | 0.0 | 0.00 | 0.00 | 0.00 | 95 | 1018.3 |
| 20260507120026 | 12 | 9 | 0.0 | 0.0 | 0.00 | 0.00 | 0.00 | 95 | 1018.3 |
| 20260507115522 | 12 | 8 | 0.0 | 0.0 | 0.00 | 0.00 | 0.00 | 95 | 1018.3 |
| 20260507115018 | 12 | 9 | 0.0 | 0.0 | 0.00 | 0.00 | 0.00 | 95 | 1018.3 |
| 20260507114514 | 12 | 9 | 0.0 | 0.0 | 0.00 | 0.00 | 0.00 | 95 | 1018.7 |
| 20260507114012 | 12 | 9 | 0.0 | 0.0 | 0.00 | 0.00 | 0.00 | 95 | 1018.3 |
| 20260507113509 | 12 | 8 | 0.0 | 0.0 | 0.00 | 0.00 | 0.00 | 95 | 1018.3 |
| 20260507113006 | 12 | 7 | 0.0 | 0.0 | 0.00 | 0.00 | 0.00 | 95 | 1018.3 |
| 20260507112503 | 12 | 6 | 0.0 | 0.0 | 0.00 | 0.00 | 0.00 | 95 | 1018.3 |
| 20260507112000 | 12 | 6 | 0.0 | 0.0 | 0.00 | 0.00 | 0.00 | 95 | 1018.7 |
| 20260507111457 | 12 | 6 | 0.0 | 0.0 | 0.00 | 0.00 | 0.00 | 95 | 1018.3 |
| 20260507110953 | 12 | 7 | 0.0 | 0.0 | 0.00 | 0.00 | 0.00 | 95 | 1018.7 |
| 20260507110450 | 13 | 7 | 0.0 | 0.0 | 0.00 | 0.00 | 0.00 | 95 | 1018.7 |
| 20260507105946 | 13 | 7 | 0.0 | 0.0 | 0.00 | 0.00 | 0.00 | 95 | 1018.3 |
| 20260507105443 | 13 | 7 | 0.0 | 0.0 | 0.00 | 0.00 | 0.00 | 95 | 1018.7 |
| 20260507104940 | 13 | 7 | 0.0 | 0.0 | 0.00 | 0.00 | 0.00 | 95 | 1018.7 |
| 20260507104437 | 13 | 7 | 0.0 | 0.0 | 0.00 | 0.00 | 0.00 | 95 | 1018.7 |
| 20260507103933 | 13 | 7 | 0.0 | 0.0 | 0.00 | 0.00 | 0.00 | 95 | 1018.7 |
| 20260507103430 | 13 | 5 | 0.0 | 0.0 | 0.00 | 0.00 | 0.00 | 95 | 1018.7 |
| 20260507102926 | 13 | 7 | 0.0 | 0.0 | 0.00 | 0.00 | 0.00 | 95 | 1019.0 |
| 20260507102423 | 13 | 7 | 0.0 | 0.0 | 0.00 | 0.00 | 0.00 | 95 | 1019.0 |
| 20260507101919 | 13 | 7 | 0.0 | 0.0 | 0.00 | 0.00 | 0.00 | 95 | 1019.0 |
| 20260507101414 | 13 | 6 | 0.0 | 0.0 | 0.00 | 0.00 | 0.00 | 95 | 1018.7 |
| 20260507100911 | 13 | 7 | 0.0 | 0.0 | 0.00 | 0.00 | 0.00 | 95 | 1018.7 |
| 20260507100409 | 13 | 7 | 0.0 | 0.0 | 0.00 | 0.00 | 0.00 | 95 | 1019.0 |
| 20260507095907 | 13 | 7 | 0.0 | 0.0 | 0.00 | 0.00 | 0.00 | 95 | 1019.0 |
| 20260507095403 | 13 | 7 | 0.0 | 0.0 | 0.00 | 0.00 | 0.00 | 95 | 1018.7 |
| 20260507094901 | 13 | 8 | 0.0 | 0.0 | 0.00 | 0.00 | 0.00 | 95 | 1018.7 |
| 20260507094357 | 13 | 8 | 0.0 | 0.0 | 0.00 | 0.00 | 0.00 | 95 | 1019.0 |
| 20260507093854 | 13 | 11 | 0.0 | 0.0 | 0.00 | 0.00 | 0.00 | 95 | 1019.0 |
| 20260507093352 | 13 | 12 | 0.0 | 0.0 | 0.00 | 0.00 | 0.00 | 95 | 1019.0 |
| 20260507092850 | 13 | 13 | 0.0 | 0.0 | 0.00 | 0.00 | 0.00 | 94 | 1019.0 |
| 20260507092346 | 13 | 13 | 0.0 | 0.0 | 0.00 | 0.00 | 0.00 | 94 | 1019.0 |
| 20260507091842 | 13 | 13 | 0.0 | 0.0 | 0.00 | 0.00 | 0.00 | 94 | 1019.0 |
| 20260507091339 | 13 | 13 | 0.0 | 0.0 | 0.00 | 0.00 | 0.00 | 94 | 1019.0 |
| 20260507090835 | 13 | 13 | 0.0 | 0.0 | 0.00 | 0.00 | 0.00 | 94 | 1019.3 |
| 20260507090331 | 13 | 13 | 0.0 | 0.0 | 0.00 | 0.00 | 0.00 | 94 | 1019.3 |
| 20260507085828 | 13 | 13 | 0.0 | 0.0 | 0.00 | 0.00 | 0.00 | 94 | 1019.3 |
| 20260507085325 | 13 | 12 | 0.0 | 0.0 | 0.00 | 0.00 | 0.00 | 94 | 1019.3 |
| 20260507084823 | 13 | 12 | 0.0 | 0.0 | 0.00 | 0.00 | 0.00 | 94 | 1019.3 |
| 20260507084319 | 13 | 13 | 0.0 | 0.0 | 0.00 | 0.00 | 0.00 | 94 | 1019.3 |
| 20260507083816 | 13 | 12 | 0.0 | 0.0 | 0.00 | 0.00 | 0.00 | 94 | 1019.3 |
| 20260507083313 | 13 | 15 | 0.0 | 0.0 | 0.00 | 0.00 | 0.00 | 94 | 1019.3 |
| 20260507082809 | 13 | 14 | 0.0 | 0.0 | 0.00 | 0.00 | 0.00 | 94 | 1019.7 |
| 20260507082306 | 13 | 17 | 0.0 | 0.0 | 0.00 | 0.00 | 0.00 | 94 | 1019.7 |
| 20260507081802 | 13 | 14 | 0.0 | 0.0 | 0.00 | 0.00 | 0.00 | 94 | 1019.3 |
| 20260507081257 | 13 | 14 | 0.0 | 0.0 | 0.00 | 0.00 | 0.00 | 94 | 1019.7 |
| 20260507080755 | 13 | 12 | 0.0 | 0.0 | 0.00 | 0.00 | 0.00 | 94 | 1019.3 |
| 20260507080251 | 13 | 12 | 0.0 | 0.0 | 0.00 | 0.00 | 0.00 | 94 | 1019.7 |
| 20260507075746 | 13 | 13 | 0.0 | 0.0 | 0.00 | 0.00 | 0.00 | 94 | 1019.7 |
| 20260507075242 | 13 | 12 | 0.0 | 0.0 | 0.00 | 0.00 | 0.00 | 94 | 1019.7 |
| 20260507074739 | 13 | 12 | 0.0 | 0.0 | 0.00 | 0.00 | 0.00 | 94 | 1019.7 |
| 20260507074237 | 13 | 11 | 0.0 | 0.0 | 0.00 | 0.00 | 0.00 | 93 | 1019.7 |
| 20260507073733 | 13 | 11 | 0.0 | 0.0 | 0.00 | 0.00 | 0.00 | 93 | 1019.7 |
| 20260507073230 | 13 | 11 | 0.0 | 0.0 | 0.00 | 0.00 | 0.00 | 93 | 1020.0 |
| 20260507072728 | 13 | 10 | 0.0 | 0.0 | 0.00 | 0.00 | 0.00 | 93 | 1020.0 |
| 20260507072225 | 13 | 10 | 0.0 | 0.0 | 0.00 | 0.00 | 0.00 | 93 | 1020.0 |
| 20260507071723 | 14 | 11 | 0.0 | 0.0 | 0.00 | 0.00 | 0.00 | 93 | 1019.7 |
| 20260507071219 | 14 | 11 | 0.0 | 0.0 | 0.00 | 0.00 | 0.00 | 93 | 1019.7 |
| 20260507070716 | 14 | 9 | 0.0 | 0.0 | 0.00 | 0.00 | 0.00 | 93 | 1019.7 |
| 20260507070213 | 14 | 8 | 0.0 | 0.0 | 0.00 | 0.00 | 0.00 | 93 | 1020.0 |
| 20260507065709 | 14 | 347 | 0.0 | 0.0 | 0.00 | 0.00 | 0.00 | 93 | 1019.7 |
| 20260507065206 | 14 | 350 | 0.0 | 0.0 | 0.00 | 0.00 | 0.00 | 93 | 1020.0 |
| 20260507063804 | 14 | 271 | 0.0 | 1.6 | 0.00 | 0.00 | 0.00 | 93 | 1020.0 |
| 20260507063301 | 14 | 271 | 0.0 | 1.6 | 0.00 | 0.00 | 0.00 | 93 | 1020.0 |
| 20260507062758 | 14 | 315 | 0.0 | 0.0 | 0.00 | 0.00 | 0.00 | 93 | 1019.7 |
| 20260507062255 | 14 | 346 | 0.0 | 0.0 | 0.00 | 0.00 | 0.00 | 92 | 1020.0 |
| 20260507061753 | 14 | 341 | 0.0 | 0.0 | 0.00 | 0.00 | 0.00 | 92 | 1020.0 |
| 20260507061250 | 14 | 326 | 0.0 | 0.0 | 0.00 | 0.00 | 0.00 | 92 | 1020.0 |
| 20260507060749 | 15 | 278 | 0.0 | 0.0 | 0.00 | 0.00 | 0.00 | 92 | 1020.0 |
| 20260507060245 | 14 | 312 | 0.0 | 3.2 | 0.00 | 0.00 | 0.00 | 92 | 1020.0 |
| 20260507055741 | 14 | 327 | 0.0 | 0.0 | 0.00 | 0.00 | 0.00 | 92 | 1020.0 |
| 20260507055237 | 15 | 337 | 0.0 | 3.2 | 0.00 | 0.00 | 0.00 | 92 | 1020.0 |
| 20260507054733 | 15 | 11 | 0.0 | 1.6 | 0.00 | 0.00 | 0.00 | 92 | 1020.0 |
| 20260507054230 | 15 | 337 | 0.0 | 4.8 | 0.00 | 0.00 | 0.00 | 92 | 1020.0 |
| 20260507053727 | 15 | 329 | 0.0 | 1.6 | 0.00 | 0.00 | 0.00 | 92 | 1020.0 |
| 20260507053225 | 15 | 341 | 0.0 | 0.0 | 0.00 | 0.00 | 0.00 | 92 | 1019.7 |
| 20260507052724 | 15 | 344 | 0.0 | 0.0 | 0.00 | 0.00 | 0.00 | 91 | 1020.0 |
| 20260507052219 | 15 | 342 | 0.0 | 1.6 | 0.00 | 0.00 | 0.00 | 91 | 1020.0 |
| 20260507051718 | 15 | 352 | 0.0 | 0.0 | 0.00 | 0.00 | 0.00 | 91 | 1020.0 |
| 20260507051214 | 15 | 318 | 0.0 | 0.0 | 0.00 | 0.00 | 0.00 | 91 | 1020.0 |
| 20260507050711 | 15 | 335 | 0.0 | 0.0 | 0.00 | 0.00 | 0.00 | 91 | 1019.7 |
| 20260507050208 | 15 | 342 | 0.0 | 0.0 | 0.00 | 0.00 | 0.00 | 91 | 1019.7 |
| 20260507045705 | 15 | 278 | 0.0 | 1.6 | 0.00 | 0.00 | 0.00 | 91 | 1019.7 |
| 20260507045201 | 15 | 341 | 0.0 | 3.2 | 0.00 | 0.00 | 0.00 | 91 | 1019.7 |
| 20260507044658 | 15 | 338 | 0.0 | 0.0 | 0.00 | 0.00 | 0.00 | 91 | 1019.7 |
| 20260507044154 | 15 | 340 | 0.0 | 0.0 | 0.00 | 0.00 | 0.00 | 91 | 1019.7 |
| 20260507043651 | 15 | 303 | 0.0 | 1.6 | 0.00 | 0.00 | 0.00 | 90 | 1019.7 |
| 20260507043148 | 15 | 345 | 0.0 | 3.2 | 0.00 | 0.00 | 0.00 | 90 | 1019.3 |
| 20260507042644 | 15 | 227 | 0.0 | 1.6 | 0.00 | 0.00 | 0.00 | 90 | 1019.7 |
| 20260507042139 | 15 | 325 | 0.0 | 3.2 | 0.00 | 0.00 | 0.00 | 90 | 1019.7 |
| 20260507041637 | 15 | 279 | 1.6 | 3.2 | 0.00 | 0.00 | 0.00 | 90 | 1019.7 |
| 20260507041133 | 15 | 189 | 3.2 | 4.8 | 0.00 | 0.00 | 0.00 | 90 | 1019.7 |
| 20260507040630 | 15 | 319 | 0.0 | 4.8 | 0.00 | 0.00 | 0.00 | 90 | 1019.7 |
| 20260507040127 | 15 | 251 | 1.6 | 3.2 | 0.00 | 0.00 | 0.00 | 90 | 1019.7 |
| 20260507035622 | 15 | 314 | 0.0 | 3.2 | 0.00 | 0.00 | 0.00 | 89 | 1019.7 |
| 20260507035118 | 15 | 206 | 3.2 | 4.8 | 0.00 | 0.00 | 0.00 | 89 | 1019.3 |
| 20260507034616 | 15 | 339 | 0.0 | 1.6 | 0.00 | 0.00 | 0.00 | 89 | 1019.3 |
| 20260507034113 | 15 | 276 | 1.6 | 4.8 | 0.00 | 0.00 | 0.00 | 89 | 1019.3 |
| 20260507033611 | 15 | 296 | 4.8 | 6.4 | 0.00 | 0.00 | 0.00 | 89 | 1019.3 |
| 20260507033108 | 15 | 257 | 3.2 | 6.4 | 0.00 | 0.00 | 0.00 | 89 | 1019.3 |
| 20260507032605 | 15 | 11 | 3.2 | 9.7 | 0.00 | 0.00 | 0.00 | 88 | 1019.0 |
| 20260507032102 | 15 | 334 | 1.6 | 3.2 | 0.00 | 0.00 | 0.00 | 88 | 1019.0 |
| 20260507031558 | 15 | 286 | 1.6 | 3.2 | 0.00 | 0.00 | 0.00 | 88 | 1019.0 |
| 20260507031055 | 15 | 288 | 1.6 | 4.8 | 0.00 | 0.00 | 0.00 | 88 | 1019.3 |
| 20260507030551 | 15 | 349 | 1.6 | 4.8 | 0.00 | 0.00 | 0.00 | 87 | 1019.0 |
| 20260507030050 | 15 | 336 | 3.2 | 6.4 | 0.00 | 0.00 | 0.00 | 87 | 1019.0 |
| 20260507025547 | 15 | 302 | 3.2 | 3.2 | 0.00 | 0.00 | 0.00 | 86 | 1019.0 |
| 20260507025044 | 15 | 319 | 3.2 | 4.8 | 0.00 | 0.00 | 0.00 | 86 | 1019.0 |
| 20260507024542 | 15 | 237 | 3.2 | 6.4 | 0.00 | 0.00 | 0.00 | 86 | 1019.0 |
| 20260507024038 | 16 | 277 | 3.2 | 12.9 | 0.00 | 0.00 | 0.00 | 85 | 1018.7 |
| 20260507023534 | 16 | 348 | 1.6 | 6.4 | 0.00 | 0.00 | 0.00 | 84 | 1018.7 |
| 20260507023032 | 16 | 319 | 0.0 | 6.4 | 0.00 | 0.00 | 0.00 | 83 | 1018.7 |
| 20260507022528 | 16 | 192 | 1.6 | 3.2 | 0.00 | 0.00 | 0.00 | 83 | 1018.7 |
| 20260507022023 | 16 | 293 | 3.2 | 9.7 | 0.00 | 0.00 | 0.00 | 82 | 1018.7 |
| 20260507021520 | 16 | 300 | 6.4 | 9.7 | 0.00 | 0.00 | 0.00 | 81 | 1018.7 |
| 20260507021016 | 16 | 284 | 3.2 | 6.4 | 0.00 | 0.00 | 0.00 | 80 | 1018.7 |
| 20260507020514 | 16 | 282 | 1.6 | 3.2 | 0.00 | 0.00 | 0.00 | 79 | 1018.7 |
| 20260507020010 | 16 | 199 | 4.8 | 6.4 | 0.00 | 0.00 | 0.00 | 78 | 1018.7 |
| 20260507015509 | 17 | 337 | 3.2 | 4.8 | 0.00 | 0.00 | 0.00 | 77 | 1018.3 |
| 20260507015006 | 17 | 249 | 6.4 | 12.9 | 0.00 | 0.00 | 0.00 | 77 | 1018.7 |
| 20260507014502 | 17 | 248 | 3.2 | 11.3 | 0.00 | 0.00 | 0.00 | 76 | 1018.7 |
| 20260507013958 | 17 | 263 | 8.0 | 9.7 | 0.00 | 0.00 | 0.00 | 74 | 1018.3 |
| 20260507013455 | 17 | 217 | 3.2 | 9.7 | 0.00 | 0.00 | 0.00 | 74 | 1018.7 |
| 20260507012952 | 17 | 213 | 8.0 | 12.9 | 0.00 | 0.00 | 0.00 | 74 | 1018.3 |
| 20260507012449 | 17 | 322 | 3.2 | 11.3 | 0.00 | 0.00 | 0.00 | 74 | 1018.7 |
| 20260507011946 | 17 | 269 | 3.2 | 4.8 | 0.00 | 0.00 | 0.00 | 75 | 1018.7 |
| 20260507011443 | 17 | 340 | 1.6 | 9.7 | 0.00 | 0.00 | 0.00 | 75 | 1018.3 |
| 20260507010938 | 17 | 321 | 3.2 | 6.4 | 0.00 | 0.00 | 0.00 | 76 | 1018.7 |
| 20260507010433 | 17 | 240 | 4.8 | 9.7 | 0.00 | 0.00 | 0.00 | 76 | 1018.3 |
| 20260507005930 | 17 | 269 | 3.2 | 14.5 | 0.00 | 0.00 | 0.00 | 76 | 1018.3 |
| 20260507005427 | 17 | 221 | 3.2 | 9.7 | 0.00 | 0.00 | 0.00 | 76 | 1018.3 |
| 20260507004923 | 18 | 312 | 4.8 | 6.4 | 0.00 | 0.00 | 0.00 | 74 | 1018.3 |
| 20260507004420 | 18 | 282 | 3.2 | 4.8 | 0.00 | 0.00 | 0.00 | 73 | 1018.3 |
| 20260507003918 | 17 | 263 | 8.0 | 14.5 | 0.00 | 0.00 | 0.00 | 74 | 1018.3 |
| 20260507003413 | 18 | 302 | 3.2 | 9.7 | 0.00 | 0.00 | 0.00 | 73 | 1018.3 |
| 20260507002908 | 19 | 335 | 3.2 | 4.8 | 0.00 | 0.00 | 0.00 | 70 | 1018.7 |
| 20260507002404 | 18 | 272 | 6.4 | 11.3 | 0.00 | 0.00 | 0.00 | 69 | 1018.3 |
| 20260507001902 | 19 | 179 | 3.2 | 4.8 | 0.00 | 0.00 | 0.00 | 69 | 1018.7 |
| 20260507001359 | 19 | 238 | 3.2 | 9.7 | 0.00 | 0.00 | 0.00 | 69 | 1018.3 |
| 20260507000856 | 19 | 295 | 3.2 | 6.4 | 0.00 | 0.00 | 0.00 | 71 | 1018.7 |
| 20260507000351 | 18 | 328 | 6.4 | 11.3 | 0.00 | 0.00 | 0.00 | 72 | 1018.3 |
| 20260506235847 | 18 | 316 | 6.4 | 14.5 | 0.00 | 0.00 | 0.00 | 73 | 1018.3 |
| 20260506235345 | 19 | 321 | 4.8 | 11.3 | 0.00 | 0.00 | 0.00 | 72 | 1018.7 |
| 20260506234840 | 18 | 209 | 6.4 | 12.9 | 0.00 | 0.00 | 0.00 | 73 | 1018.3 |
| 20260506234338 | 18 | 278 | 9.7 | 12.9 | 0.00 | 0.00 | 0.00 | 71 | 1018.3 |
| 20260506233836 | 18 | 293 | 6.4 | 9.7 | 0.00 | 0.00 | 0.00 | 70 | 1018.3 |
| 20260506233331 | 19 | 259 | 6.4 | 12.9 | 0.00 | 0.00 | 0.00 | 70 | 1018.7 |
| 20260506232829 | 19 | 16 | 3.2 | 14.5 | 0.00 | 0.00 | 0.00 | 70 | 1018.7 |
| 20260506232324 | 18 | 205 | 3.2 | 6.4 | 0.00 | 0.00 | 0.00 | 71 | 1018.7 |
| 20260506231821 | 19 | 275 | 4.8 | 14.5 | 0.00 | 0.00 | 0.00 | 72 | 1018.7 |
| 20260506231319 | 19 | 270 | 3.2 | 4.8 | 0.00 | 0.00 | 0.00 | 71 | 1018.7 |
| 20260506230816 | 18 | 293 | 6.4 | 11.3 | 0.00 | 0.00 | 0.00 | 72 | 1018.7 |
| 20260506230313 | 19 | 261 | 8.0 | 14.5 | 0.00 | 0.00 | 0.00 | 70 | 1018.7 |
| 20260506225809 | 20 | 252 | 6.4 | 11.3 | 0.00 | 0.00 | 0.00 | 67 | 1018.7 |
| 20260506225306 | 20 | 316 | 3.2 | 6.4 | 0.00 | 0.00 | 0.00 | 67 | 1018.7 |
| 20260506224803 | 20 | 32 | 6.4 | 11.3 | 0.00 | 0.00 | 0.00 | 70 | 1018.7 |
| 20260506224300 | 20 | 208 | 6.4 | 9.7 | 0.00 | 0.00 | 0.00 | 67 | 1018.7 |
| 20260506223756 | 20 | 263 | 6.4 | 12.9 | 0.00 | 0.00 | 0.00 | 67 | 1018.7 |
| 20260506223251 | 20 | 322 | 3.2 | 9.7 | 0.00 | 0.00 | 0.00 | 69 | 1018.7 |
| 20260506222749 | 20 | 271 | 4.8 | 12.9 | 0.00 | 0.00 | 0.00 | 68 | 1019.0 |
| 20260506222244 | 20 | 206 | 6.4 | 9.7 | 0.00 | 0.00 | 0.00 | 67 | 1019.0 |
| 20260506221737 | 20 | 235 | 6.4 | 12.9 | 0.00 | 0.00 | 0.00 | 69 | 1019.0 |
| 20260506221234 | 20 | 306 | 6.4 | 11.3 | 0.00 | 0.00 | 0.00 | 65 | 1019.0 |
| 20260506220731 | 20 | 222 | 6.4 | 12.9 | 0.00 | 0.00 | 0.00 | 66 | 1019.0 |
| 20260506220226 | 20 | 321 | 8.0 | 12.9 | 0.00 | 0.00 | 0.00 | 66 | 1019.3 |
| 20260506215723 | 20 | 51 | 3.2 | 9.7 | 0.00 | 0.00 | 0.00 | 67 | 1019.3 |
| 20260506215219 | 20 | 281 | 3.2 | 11.3 | 0.00 | 0.00 | 0.00 | 65 | 1019.3 |
| 20260506214715 | 21 | 289 | 6.4 | 6.4 | 0.00 | 0.00 | 0.00 | 63 | 1019.7 |
| 20260506214213 | 21 | 220 | 4.8 | 11.3 | 0.00 | 0.00 | 0.00 | 64 | 1019.7 |
| 20260506213711 | 20 | 277 | 3.2 | 6.4 | 0.00 | 0.00 | 0.00 | 65 | 1019.3 |
| 20260506213208 | 20 | 206 | 8.0 | 11.3 | 0.00 | 0.00 | 0.00 | 64 | 1019.7 |
| 20260506212705 | 20 | 221 | 8.0 | 12.9 | 0.00 | 0.00 | 0.00 | 65 | 1019.7 |
| 20260506212200 | 20 | 350 | 4.8 | 14.5 | 0.00 | 0.00 | 0.00 | 66 | 1019.3 |
| 20260506211656 | 20 | 282 | 8.0 | 12.9 | 0.00 | 0.00 | 0.00 | 66 | 1019.7 |
| 20260506211152 | 20 | 243 | 8.0 | 14.5 | 0.00 | 0.00 | 0.00 | 66 | 1020.0 |
| 20260506210649 | 20 | 248 | 6.4 | 11.3 | 0.00 | 0.00 | 0.00 | 65 | 1020.0 |
| 20260506210146 | 20 | 206 | 4.8 | 11.3 | 0.00 | 0.00 | 0.00 | 65 | 1020.0 |
| 20260506205644 | 20 | 276 | 6.4 | 11.3 | 0.00 | 0.00 | 0.00 | 64 | 1019.7 |
| 20260506205138 | 20 | 270 | 8.0 | 12.9 | 0.00 | 0.00 | 0.00 | 65 | 1019.7 |
| 20260506204636 | 20 | 167 | 4.8 | 11.3 | 0.00 | 0.00 | 0.00 | 66 | 1020.0 |
| 20260506204133 | 20 | 219 | 6.4 | 11.3 | 0.00 | 0.00 | 0.00 | 66 | 1020.0 |
| 20260506203631 | 20 | 297 | 6.4 | 11.3 | 0.00 | 0.00 | 0.00 | 66 | 1020.0 |
| 20260506203127 | 20 | 225 | 4.8 | 11.3 | 0.00 | 0.00 | 0.00 | 66 | 1020.0 |
| 20260506202626 | 20 | 235 | 6.4 | 11.3 | 0.00 | 0.00 | 0.00 | 65 | 1020.0 |
| 20260506202121 | 20 | 311 | 8.0 | 11.3 | 0.00 | 0.00 | 0.00 | 65 | 1020.0 |
| 20260506201619 | 20 | 269 | 6.4 | 9.7 | 0.00 | 0.00 | 0.00 | 67 | 1020.0 |
| 20260506201115 | 20 | 303 | 9.7 | 12.9 | 0.00 | 0.00 | 0.00 | 66 | 1020.4 |
| 20260506200612 | 20 | 202 | 3.2 | 12.9 | 0.00 | 0.00 | 0.00 | 66 | 1020.4 |
| 20260506200109 | 20 | 213 | 6.4 | 9.7 | 0.00 | 0.00 | 0.00 | 65 | 1020.4 |
| 20260506195605 | 20 | 205 | 4.8 | 11.3 | 0.00 | 0.00 | 0.00 | 66 | 1020.7 |
| 20260506195102 | 20 | 235 | 3.2 | 11.3 | 0.00 | 0.00 | 0.00 | 66 | 1020.4 |
| 20260506194559 | 21 | 262 | 6.4 | 9.7 | 0.00 | 0.00 | 0.00 | 61 | 1020.4 |
| 20260506194055 | 21 | 291 | 4.8 | 9.7 | 0.00 | 0.00 | 0.00 | 62 | 1020.4 |
| 20260506193553 | 21 | 248 | 6.4 | 12.9 | 0.00 | 0.00 | 0.00 | 63 | 1020.7 |
| 20260506193050 | 20 | 303 | 4.8 | 9.7 | 0.00 | 0.00 | 0.00 | 64 | 1020.7 |
| 20260506192547 | 20 | 340 | 3.2 | 11.3 | 0.00 | 0.00 | 0.00 | 66 | 1020.7 |
| 20260506192043 | 20 | 245 | 3.2 | 9.7 | 0.00 | 0.00 | 0.00 | 65 | 1020.7 |
| 20260506191540 | 20 | 219 | 6.4 | 12.9 | 0.00 | 0.00 | 0.00 | 64 | 1020.7 |
| 20260506191035 | 20 | 243 | 3.2 | 11.3 | 0.00 | 0.00 | 0.00 | 65 | 1020.7 |
| 20260506190533 | 20 | 294 | 3.2 | 9.7 | 0.00 | 0.00 | 0.00 | 66 | 1021.0 |
| 20260506190030 | 20 | 293 | 8.0 | 9.7 | 0.00 | 0.00 | 0.00 | 63 | 1020.7 |
| 20260506185527 | 20 | 293 | 3.2 | 6.4 | 0.00 | 0.00 | 0.00 | 63 | 1021.0 |
| 20260506185024 | 20 | 217 | 3.2 | 11.3 | 0.00 | 0.00 | 0.00 | 65 | 1021.0 |
| 20260506184521 | 20 | 10 | 6.4 | 9.7 | 0.00 | 0.00 | 0.00 | 63 | 1020.7 |
| 20260506184018 | 20 | 342 | 0.0 | 11.3 | 0.00 | 0.00 | 0.00 | 64 | 1020.7 |
| 20260506183514 | 20 | 328 | 3.2 | 6.4 | 0.00 | 0.00 | 0.00 | 64 | 1020.7 |
| 20260506183011 | 20 | 234 | 6.4 | 12.9 | 0.00 | 0.00 | 0.00 | 63 | 1021.0 |
| 20260506182508 | 20 | 155 | 3.2 | 9.7 | 0.00 | 0.00 | 0.00 | 63 | 1021.0 |
| 20260506182005 | 20 | 246 | 3.2 | 6.4 | 0.00 | 0.00 | 0.00 | 64 | 1020.7 |
| 20260506181503 | 20 | 224 | 4.8 | 6.4 | 0.00 | 0.00 | 0.00 | 64 | 1021.0 |
| 20260506181000 | 21 | 264 | 6.4 | 9.7 | 0.00 | 0.00 | 0.00 | 61 | 1021.0 |
| 20260506180456 | 21 | 162 | 3.2 | 6.4 | 0.00 | 0.00 | 0.00 | 63 | 1021.0 |
| 20260506175953 | 20 | 272 | 4.8 | 6.4 | 0.00 | 0.00 | 0.00 | 63 | 1021.0 |
| 20260506175450 | 20 | 308 | 3.2 | 6.4 | 0.00 | 0.00 | 0.00 | 63 | 1021.0 |
| 20260506174946 | 20 | 320 | 3.2 | 6.4 | 0.00 | 0.00 | 0.00 | 64 | 1021.0 |
| 20260506174444 | 20 | 50 | 0.0 | 6.4 | 0.00 | 0.00 | 0.00 | 65 | 1021.0 |
| 20260506173940 | 20 | 268 | 4.8 | 11.3 | 0.00 | 0.00 | 0.00 | 65 | 1021.0 |
| 20260506173438 | 20 | 164 | 4.8 | 6.4 | 0.00 | 0.00 | 0.00 | 65 | 1021.0 |
| 20260506172935 | 21 | 359 | 4.8 | 6.4 | 0.00 | 0.00 | 0.00 | 61 | 1021.0 |
| 20260506172432 | 21 | 331 | 0.0 | 3.2 | 0.00 | 0.00 | 0.00 | 61 | 1021.0 |
| 20260506171928 | 21 | 247 | 3.2 | 4.8 | 0.00 | 0.00 | 0.00 | 59 | 1020.7 |
| 20260506171426 | 20 | 354 | 1.6 | 3.2 | 0.00 | 0.00 | 0.00 | 63 | 1021.0 |
| 20260506170924 | 19 | 335 | 1.6 | 4.8 | 0.00 | 0.00 | 0.00 | 64 | 1021.0 |
| 20260506170420 | 20 | 337 | 0.0 | 3.2 | 0.00 | 0.00 | 0.00 | 65 | 1021.0 |